Weather in Bogorodskoye

Russia / Samara Oblast     53°38′00″N   51°09′56″E
temp.,
°C
wind,
m/s
gust,
m/s
humid.,
%
clouds,
%
prec.,
mm/h
press.,
hPa
HPBL,
m
3 march, wed
wed301:00−2w359898 0.3 1001141
04:00−6w239594 0.3 100221
07:00−7w239734 0.0 100123
10:00−6w379654 0.0 1003228
13:00−4wnw579390 0.1 1003477
16:00−3wnw698794 0.1 1004820
19:00−6wnw5119299 0.1 1004456
22:00−8wnw5119497 0.1 1007304
4 march, thu
thu401:00−9w499599 0.1 1007208
04:00−11wsw4796100 0.1 1007122
07:00−12sw499675 0.1 1006169
10:00−8sw6119387 0.4 1005421
13:00−4sw81392100 0.1 1003726
16:00−2sw91595100 0.9 1001959
19:000wsw91596100 1.2 1000916
22:000wsw81397100 2.0 1001832
5 march, fri
fri501:000wsw71397100 1.3 1001697
04:00−1sw61197100 2.4 1001641
07:00−2sw61197100 1.2 1001532
10:00−1sw61197100 3.1 1000574
13:00+1sw714100100 2.2 999679
16:00+1wsw91598100 3.3 1000825
19:00−6nw5109492 0.1 1004295
22:00−11nw359568 0.1 100983
6 march, sat
sat601:00−14nw229433 0.0 101221
04:00−15n119667 0.0 101320
07:00−14ne1294100 0.0 101320
10:00−12nne3491100 0.0 1012178
13:00−10nne3490100 0.0 1012283
16:00−10n3491100 0.0 1011312
19:00−14nnw2293100 0.0 101120
22:00−17nw229150 0.0 101220
7 march, sun
sun701:00−17w22940 0.0 101220
04:00−15wsw229648 0.0 101339
07:00−15w2397100 0.2 101463
10:00−15wnw249595 0.2 1015149
13:00−13wsw24885 0.0 1015237
16:00−11ssw58902 0.0 1014368
19:00−13s6138887 0.0 1012326
22:00−11s8159194 0.0 1010494